• în Republica Moldova
  • Lista ţărilor
  • Pe 7 zile
  • Temperatura apei
  • Hartă satelitară
  • Meteo pe hartă
  • Widget-uri
  • user-avatar
    Intrare

    Meteo pe oră la Stepanakert

    Astăzi, 28 Martie, Marţi

    Timp Temperatura Precipitaţii Vânt Presiune Umiditate
    00:00 +7°C° 0 mm 2 m/s 688 mmHg 61%
    01:00 +7°C° 0 mm 2 m/s 688 mmHg 64%
    02:00 +7°C° 0 mm 2 m/s 687 mmHg 66%
    03:00 +7°C° 0 mm 1 m/s 687 mmHg 68%
    04:00 +7°C° 0 mm 1 m/s 687 mmHg 69%
    05:00 +6°C° 0 mm 2 m/s 688 mmHg 70%
    06:00 +5°C° 0 mm 2 m/s 688 mmHg 71%
    07:00 +7°C° 0 mm 2 m/s 689 mmHg 65%
    08:00 +9°C° 0 mm 3 m/s 689 mmHg 60%
    09:00 +11°C° 0 mm 4 m/s 690 mmHg 57%
    10:00 +11°C° 0,1 mm 4 m/s 690 mmHg 57%
    11:00 +11°C° 0,1 mm 4 m/s 690 mmHg 56%
    12:00 +10°C° 0,1 mm 5 m/s 691 mmHg 56%
    13:00 +11°C° 0,1 mm 4 m/s 690 mmHg 56%
    14:00 +11°C° 0,1 mm 4 m/s 690 mmHg 57%
    15:00 +10°C° 0,1 mm 4 m/s 690 mmHg 58%
    16:00 +9°C° 0,1 mm 3 m/s 691 mmHg 62%
    17:00 +8°C° 0,1 mm 2 m/s 691 mmHg 67%
    18:00 +8°C° 0,1 mm 1 m/s 691 mmHg 71%
    19:00 +7°C° 0 mm 1 m/s 691 mmHg 73%
    20:00 +6°C° 0 mm 1 m/s 691 mmHg 76%
    21:00 +5°C° 0 mm 1 m/s 692 mmHg 78%
    22:00 +5°C° 0 mm 1 m/s 691 mmHg 78%
    23:00 +5°C° 0 mm 1 m/s 691 mmHg 78%

    Mâine, 29 Martie, Miercuri

    Timp Temperatura Precipitaţii Vânt Presiune Umiditate
    00:00 +4°C° 0 mm 1 m/s 691 mmHg 79%
    01:00 +4°C° 0 mm 1 m/s 691 mmHg 79%
    02:00 +4°C° 0 mm 1 m/s 691 mmHg 80%
    03:00 +4°C° 0 mm 1 m/s 691 mmHg 80%
    04:00 +4°C° 0 mm 1 m/s 691 mmHg 80%
    05:00 +4°C° 0 mm 1 m/s 691 mmHg 79%
    06:00 +2°C° 0 mm 2 m/s 691 mmHg 79%
    07:00 +5°C° 0 mm 2 m/s 692 mmHg 68%
    08:00 +8°C° 0 mm 2 m/s 692 mmHg 58%
    09:00 +10°C° 0 mm 2 m/s 693 mmHg 48%
    10:00 +13°C° 0 mm 2 m/s 693 mmHg 45%
    11:00 +13°C° 0 mm 3 m/s 693 mmHg 42%
    12:00 +14°C° 0 mm 3 m/s 693 mmHg 39%
    13:00 +14°C° 0 mm 3 m/s 693 mmHg 39%
    14:00 +14°C° 0 mm 3 m/s 693 mmHg 39%
    15:00 +16°C° 0 mm 3 m/s 693 mmHg 39%
    16:00 +14°C° 0 mm 2 m/s 693 mmHg 46%
    17:00 +12°C° 0 mm 2 m/s 693 mmHg 53%
    18:00 +10°C° 0 mm 1 m/s 693 mmHg 60%
    19:00 +9°C° 0 mm 1 m/s 694 mmHg 65%
    20:00 +7°C° 0 mm 1 m/s 694 mmHg 71%
    21:00 +6°C° 0 mm 1 m/s 695 mmHg 76%
    22:00 +5°C° 0 mm 1 m/s 695 mmHg 79%
    23:00 +5°C° 0 mm 1 m/s 695 mmHg 81%

    Poimâine, 30 Martie, Joi

    Timp Temperatura Precipitaţii Vânt Presiune Umiditate
    00:00 +4°C° 0 mm 1 m/s 695 mmHg 84%
    01:00 +4°C° 0 mm 1 m/s 695 mmHg 86%
    02:00 +4°C° 0 mm 1 m/s 695 mmHg 88%
    03:00 +3°C° 0 mm 1 m/s 695 mmHg 89%
    04:00 +3°C° 0 mm 1 m/s 695 mmHg 89%
    05:00 +3°C° 0 mm 1 m/s 695 mmHg 89%
    06:00 +3°C° 0 mm 1 m/s 696 mmHg 89%
    07:00 +5°C° 0 mm 1 m/s 696 mmHg 79%
    08:00 +7°C° 0 mm 1 m/s 696 mmHg 70%
    09:00 +10°C° 0 mm 1 m/s 696 mmHg 61%
    10:00 +10°C° 0 mm 2 m/s 696 mmHg 57%
    11:00 +12°C° 0 mm 2 m/s 695 mmHg 53%
    12:00 +14°C° 0 mm 2 m/s 695 mmHg 49%
    13:00 +14°C° 0 mm 2 m/s 694 mmHg 49%
    14:00 +14°C° 0 mm 2 m/s 694 mmHg 49%
    15:00 +15°C° 0 mm 2 m/s 693 mmHg 50%
    16:00 +13°C° 0 mm 2 m/s 692 mmHg 58%
    17:00 +11°C° 0 mm 1 m/s 692 mmHg 67%
    18:00 +9°C° 0 mm 1 m/s 692 mmHg 76%
    19:00 +8°C° 0 mm 1 m/s 692 mmHg 77%
    20:00 +7°C° 0 mm 1 m/s 692 mmHg 79%
    21:00 +7°C° 0 mm 1 m/s 692 mmHg 80%
    22:00 +7°C° 0 mm 1 m/s 692 mmHg 78%
    23:00 +7°C° 0 mm 1 m/s 692 mmHg 76%

    31 Martie, Vineri

    Timp Temperatura Precipitaţii Vânt Presiune Umiditate
    00:00 +6°C° 0 mm 2 m/s 692 mmHg 73%
    01:00 +5°C° 0 mm 2 m/s 692 mmHg 72%
    02:00 +5°C° 0 mm 2 m/s 691 mmHg 70%
    03:00 +5°C° 0 mm 2 m/s 691 mmHg 68%
    04:00 +5°C° 0 mm 2 m/s 691 mmHg 67%
    05:00 +5°C° 0 mm 2 m/s 691 mmHg 66%
    06:00 +5°C° 0 mm 2 m/s 691 mmHg 65%
    07:00 +8°C° 0 mm 2 m/s 692 mmHg 58%
    08:00 +10°C° 0 mm 2 m/s 692 mmHg 50%
    09:00 +14°C° 0 mm 1 m/s 693 mmHg 42%
    10:00 +15°C° 0 mm 2 m/s 693 mmHg 42%
    11:00 +16°C° 0 mm 2 m/s 693 mmHg 41%
    12:00 +17°C° 0 mm 3 m/s 693 mmHg 40%
    13:00 +16°C° 0,1 mm 3 m/s 692 mmHg 43%
    14:00 +16°C° 0,1 mm 3 m/s 692 mmHg 45%
    15:00 +14°C° 0,1 mm 3 m/s 691 mmHg 48%
    16:00 +13°C° 0,4 mm 4 m/s 692 mmHg 56%
    17:00 +11°C° 0,4 mm 4 m/s 692 mmHg 65%
    18:00 +8°C° 0,4 mm 4 m/s 692 mmHg 73%
    19:00 +7°C° 0,8 mm 4 m/s 693 mmHg 78%
    20:00 +6°C° 0,8 mm 4 m/s 693 mmHg 83%
    21:00 +5°C° 0,8 mm 4 m/s 694 mmHg 89%
    22:00 +4°C° 0,7 mm 4 m/s 694 mmHg 89%
    23:00 +4°C° 0,7 mm 4 m/s 694 mmHg 89%

    1 Aprilie, Sâmbătă

    Timp Temperatura Precipitaţii Vânt Presiune Umiditate
    00:00 +3°C° 0,7 mm 4 m/s 694 mmHg 90%
    01:00 +3°C° 0,3 mm 4 m/s 694 mmHg 90%
    02:00 +1°C° 0,3 mm 4 m/s 694 mmHg 90%
    03:00 +1°C° 0,3 mm 4 m/s 694 mmHg 90%
    04:00 0°C° 0,2 mm 4 m/s 695 mmHg 90%
    05:00 0°C° 0,2 mm 4 m/s 695 mmHg 90%
    06:00 0°C° 0,2 mm 4 m/s 695 mmHg 89%
    07:00 0°C° 0,3 mm 4 m/s 696 mmHg 88%
    08:00 0°C° 0,3 mm 4 m/s 696 mmHg 86%
    09:00 0°C° 0,3 mm 4 m/s 697 mmHg 85%
    10:00 0°C° 0,5 mm 4 m/s 697 mmHg 84%
    11:00 +1°C° 0,5 mm 4 m/s 697 mmHg 83%
    12:00 +2°C° 0,5 mm 3 m/s 696 mmHg 82%
    13:00 +2°C° 0,3 mm 3 m/s 696 mmHg 82%
    14:00 +2°C° 0,3 mm 3 m/s 696 mmHg 82%
    15:00 +2°C° 0,3 mm 3 m/s 696 mmHg 82%
    16:00 +3°C° 0,1 mm 2 m/s 696 mmHg 84%
    17:00 +2°C° 0,1 mm 2 m/s 696 mmHg 86%
    18:00 +2°C° 0,1 mm 2 m/s 696 mmHg 89%
    19:00 +1°C° 0,1 mm 2 m/s 696 mmHg 90%
    20:00 +1°C° 0,1 mm 2 m/s 696 mmHg 90%
    21:00 -1°C° 0,1 mm 2 m/s 696 mmHg 91%
    22:00 +1°C° 0,2 mm 1 m/s 696 mmHg 91%
    23:00 +1°C° 0,2 mm 1 m/s 696 mmHg 91%

    2 Aprilie, Duminică

    Timp Temperatura Precipitaţii Vânt Presiune Umiditate
    00:00 +1°C° 0,2 mm 1 m/s 695 mmHg 90%
    01:00 +1°C° 0,4 mm 1 m/s 695 mmHg 91%
    02:00 +1°C° 0,4 mm 1 m/s 695 mmHg 91%
    03:00 +1°C° 0,4 mm 1 m/s 695 mmHg 92%
    04:00 +1°C° 0,2 mm 1 m/s 695 mmHg 92%
    05:00 +1°C° 0,2 mm 1 m/s 696 mmHg 92%
    06:00 +1°C° 0,2 mm 1 m/s 696 mmHg 92%
    07:00 +2°C° 0,2 mm 1 m/s 696 mmHg 89%
    08:00 +3°C° 0,2 mm 1 m/s 696 mmHg 86%
    09:00 +4°C° 0,2 mm 1 m/s 697 mmHg 83%
    10:00 +4°C° 0,1 mm 2 m/s 697 mmHg 81%
    11:00 +5°C° 0,1 mm 2 m/s 697 mmHg 79%
    12:00 +6°C° 0,1 mm 2 m/s 697 mmHg 77%
    13:00 +6°C° 0,1 mm 2 m/s 696 mmHg 76%
    14:00 +6°C° 0,1 mm 2 m/s 696 mmHg 75%
    15:00 +7°C° 0,1 mm 2 m/s 696 mmHg 75%
    16:00 +6°C° 0 mm 2 m/s 696 mmHg 79%
    17:00 +5°C° 0 mm 2 m/s 696 mmHg 84%
    18:00 +5°C° 0 mm 1 m/s 696 mmHg 88%
    19:00 +4°C° 0 mm 1 m/s 696 mmHg 90%
    20:00 +3°C° 0 mm 1 m/s 696 mmHg 92%
    21:00 +2°C° 0 mm 1 m/s 697 mmHg 93%
    22:00 +1°C° 0 mm 1 m/s 696 mmHg 93%
    23:00 +1°C° 0 mm 1 m/s 696 mmHg 93%
    Arată mai mult